RYR719 LFOB-EGBB

Flight info

Callsign RYR719
Flight time 0h 51m
Altitude 26000
Route OPALE DCT KESAX DCT DIMAL DCT ALESO T420 HEMEL
Aircraft B738/M-SDE3FGILRWY/SB1

Departure

Time 2026-04-24 09:38
Airport Beauvais-Tillé airport (LFOB)

Arrival

Time 2026-04-24 10:30
Airport Birmingham Airport (EGBB)
Time Latitude Longitude Altitude Speed Heading
2026-04-24 09:19 49.45826 2.11103 354 ft 0 kts 33°
2026-04-24 09:33 49.45811 2.11089 360 ft 4 kts 25°
2026-04-24 09:33 49.45786 2.11077 359 ft 4 kts 358°
2026-04-24 09:33 49.45765 2.11088 353 ft 3 kts 305°
2026-04-24 09:33 49.45764 2.11091 354 ft 1 kts 303°
2026-04-24 09:36 49.45765 2.11089 354 ft 1 kts 303°
2026-04-24 09:36 49.45783 2.11047 357 ft 8 kts 303°
2026-04-24 09:36 49.45777 2.10971 353 ft 8 kts 223°
2026-04-24 09:37 49.45731 2.10928 360 ft 8 kts 209°
2026-04-24 09:37 49.45682 2.10889 360 ft 9 kts 207°
2026-04-24 09:37 49.45642 2.10835 355 ft 5 kts 216°
2026-04-24 09:37 49.45629 2.10845 362 ft 3 kts 134°
2026-04-24 09:38 49.45557 2.11011 365 ft 49 kts 124°
2026-04-24 09:38 49.45235 2.11754 356 ft 115 kts 124°
2026-04-24 09:38 49.44686 2.13008 403 ft 162 kts 120°
2026-04-24 09:38 49.44067 2.14454 1091 ft 158 kts 114°
2026-04-24 09:39 49.43926 2.16067 1676 ft 165 kts 70°
2026-04-24 09:39 49.44616 2.17644 1967 ft 190 kts 52°
2026-04-24 09:39 49.45653 2.18992 2402 ft 204 kts 27°
2026-04-24 09:39 49.47078 2.19250 2915 ft 215 kts 352°
2026-04-24 09:40 49.48571 2.18407 3186 ft 245 kts 337°
2026-04-24 09:40 49.50148 2.17112 3592 ft 265 kts 333°
2026-04-24 09:40 49.51774 2.15679 4252 ft 272 kts 333°
2026-04-24 09:40 49.53423 2.14222 5072 ft 275 kts 333°
2026-04-24 09:41 49.55096 2.12743 5807 ft 279 kts 333°
2026-04-24 09:41 49.56796 2.11249 6563 ft 283 kts 333°
2026-04-24 09:41 49.58516 2.09748 7298 ft 286 kts 333°
2026-04-24 09:41 49.60254 2.08235 8083 ft 288 kts 333°
2026-04-24 09:42 49.62007 2.06714 8874 ft 290 kts 333°
2026-04-24 09:42 49.63772 2.05185 9685 ft 293 kts 333°
2026-04-24 09:42 49.65560 2.03638 10494 ft 296 kts 333°
2026-04-24 09:42 49.67409 2.02040 10834 ft 317 kts 333°
2026-04-24 09:43 49.69396 2.00325 11175 ft 335 kts 333°
2026-04-24 09:43 49.71448 1.98548 11806 ft 341 kts 333°
2026-04-24 09:43 49.73527 1.96744 12591 ft 344 kts 332°
2026-04-24 09:43 49.75624 1.94923 13393 ft 347 kts 332°
2026-04-24 09:44 49.77737 1.93087 14207 ft 350 kts 331°
2026-04-24 09:44 49.79869 1.91233 14925 ft 354 kts 331°
2026-04-24 09:44 49.82030 1.89353 15644 ft 358 kts 331°
2026-04-24 09:44 49.84225 1.87442 16288 ft 366 kts 330°
2026-04-24 09:45 49.86459 1.85494 16981 ft 371 kts 330°
2026-04-24 09:45 49.88731 1.83511 17631 ft 378 kts 330°
2026-04-24 09:45 49.91026 1.81506 18454 ft 379 kts 330°
2026-04-24 09:45 49.93310 1.79508 19063 ft 384 kts 330°
2026-04-24 09:46 49.95649 1.77460 19692 ft 388 kts 329°
2026-04-24 09:46 49.98009 1.75391 20319 ft 391 kts 329°
2026-04-24 09:46 50.00389 1.73303 20970 ft 394 kts 329°
2026-04-24 09:46 50.02781 1.71202 21686 ft 395 kts 328°
2026-04-24 09:47 50.05166 1.69106 22466 ft 393 kts 328°
2026-04-24 09:47 50.07557 1.67032 23229 ft 394 kts 329°
2026-04-24 09:47 50.10012 1.65134 23934 ft 395 kts 332°
2026-04-24 09:47 50.12509 1.63337 24552 ft 395 kts 333°
2026-04-24 09:48 50.15002 1.61580 25284 ft 390 kts 333°
2026-04-24 09:48 50.17462 1.59842 25934 ft 389 kts 333°
2026-04-24 09:48 50.19924 1.58085 26271 ft 388 kts 332°
2026-04-24 09:48 50.22371 1.56322 26297 ft 387 kts 332°
2026-04-24 09:49 50.24805 1.54557 26312 ft 384 kts 332°
2026-04-24 09:49 50.27226 1.52794 26325 ft 384 kts 332°
2026-04-24 09:49 50.28830 1.51623 26329 ft 384 kts 332°
2026-04-24 09:49 50.31253 1.49852 26325 ft 385 kts 332°
2026-04-24 09:50 50.33678 1.48077 26324 ft 385 kts 332°
2026-04-24 09:50 50.36107 1.46297 26326 ft 386 kts 332°
2026-04-24 09:50 50.39328 1.43936 26325 ft 386 kts 332°
2026-04-24 09:50 50.40968 1.42732 26324 ft 386 kts 332°
2026-04-24 09:51 50.44189 1.40366 26330 ft 386 kts 332°
2026-04-24 09:51 50.45833 1.39156 26325 ft 386 kts 332°
2026-04-24 09:51 50.48220 1.37266 26323 ft 383 kts 324°
2026-04-24 09:51 50.50359 1.34828 26324 ft 377 kts 314°
2026-04-24 09:52 50.52175 1.31908 26331 ft 372 kts 308°
2026-04-24 09:52 50.53904 1.28880 26330 ft 371 kts 308°
2026-04-24 09:52 50.55637 1.25870 26326 ft 371 kts 308°
2026-04-24 09:52 50.57378 1.22881 26328 ft 370 kts 309°
2026-04-24 09:53 50.59149 1.19944 26332 ft 370 kts 310°
2026-04-24 09:53 50.60965 1.17073 26338 ft 370 kts 311°
2026-04-24 09:53 50.62793 1.14218 26343 ft 370 kts 311°
2026-04-24 09:53 50.64625 1.11355 26363 ft 371 kts 311°
2026-04-24 09:54 50.66452 1.08486 26357 ft 371 kts 311°
2026-04-24 09:54 50.68277 1.05607 26351 ft 371 kts 311°
2026-04-24 09:54 50.70094 1.02728 26353 ft 371 kts 311°
2026-04-24 09:54 50.71912 0.99840 26353 ft 371 kts 310°
2026-04-24 09:55 50.73707 0.96984 26355 ft 371 kts 310°
2026-04-24 09:55 50.75522 0.94090 26352 ft 371 kts 310°
2026-04-24 09:55 50.77338 0.91191 26368 ft 371 kts 310°
2026-04-24 09:55 50.79152 0.88292 26364 ft 371 kts 310°
2026-04-24 09:56 50.80961 0.85399 26355 ft 370 kts 310°
2026-04-24 09:56 50.82796 0.82462 26357 ft 370 kts 310°
2026-04-24 09:56 50.84602 0.79567 26357 ft 369 kts 310°
2026-04-24 09:56 50.86402 0.76681 26361 ft 369 kts 310°
2026-04-24 09:57 50.88182 0.73841 26367 ft 368 kts 311°
2026-04-24 09:57 50.89990 0.70958 26365 ft 368 kts 311°
2026-04-24 09:57 50.91794 0.68079 26363 ft 368 kts 311°
2026-04-24 09:57 50.93593 0.65203 26364 ft 368 kts 310°
2026-04-24 09:58 50.95391 0.62324 26372 ft 367 kts 310°
2026-04-24 09:58 50.97188 0.59442 26371 ft 367 kts 310°
2026-04-24 09:58 50.98972 0.56545 26370 ft 367 kts 310°
2026-04-24 09:58 51.00751 0.53638 26368 ft 367 kts 310°
2026-04-24 09:59 51.02527 0.50733 26370 ft 367 kts 310°
2026-04-24 09:59 51.04305 0.47825 26375 ft 367 kts 310°
2026-04-24 09:59 51.06081 0.44918 26383 ft 367 kts 310°
2026-04-24 09:59 51.07879 0.42021 26381 ft 368 kts 311°
2026-04-24 10:00 51.09723 0.39197 26372 ft 368 kts 312°
2026-04-24 10:00 51.11586 0.36393 26380 ft 369 kts 312°
2026-04-24 10:00 51.13447 0.33594 26378 ft 368 kts 312°
2026-04-24 10:00 51.15307 0.30783 26369 ft 368 kts 312°
2026-04-24 10:01 51.17161 0.27969 26377 ft 368 kts 312°
2026-04-24 10:01 51.19011 0.25147 26368 ft 368 kts 312°
2026-04-24 10:01 51.20861 0.22319 26375 ft 368 kts 312°
2026-04-24 10:01 51.22709 0.19488 26371 ft 368 kts 312°
2026-04-24 10:02 51.24550 0.16663 26377 ft 368 kts 312°
2026-04-24 10:02 51.26397 0.13826 26362 ft 368 kts 312°
2026-04-24 10:02 51.28241 0.10991 26361 ft 368 kts 312°
2026-04-24 10:02 51.30082 0.08158 26370 ft 367 kts 312°
2026-04-24 10:03 51.31923 0.05321 26367 ft 368 kts 312°
2026-04-24 10:03 51.33877 0.02677 26380 ft 371 kts 322°
2026-04-24 10:03 51.36082 0.00494 26382 ft 373 kts 326°
2026-04-24 10:03 51.38322 -0.01594 26377 ft 373 kts 326°
2026-04-24 10:04 51.40573 -0.03675 26370 ft 373 kts 326°
2026-04-24 10:04 51.42816 -0.05764 26365 ft 373 kts 326°
2026-04-24 10:04 51.45060 -0.07871 26356 ft 373 kts 326°
2026-04-24 10:04 51.47293 -0.09984 26356 ft 373 kts 326°
2026-04-24 10:05 51.49525 -0.12107 26353 ft 373 kts 325°
2026-04-24 10:05 51.51754 -0.14233 26353 ft 373 kts 325°
2026-04-24 10:05 51.53983 -0.16365 26354 ft 373 kts 325°
2026-04-24 10:05 51.56201 -0.18487 26253 ft 370 kts 325°
2026-04-24 10:06 51.58395 -0.20589 26058 ft 365 kts 326°
2026-04-24 10:06 51.62742 -0.24763 25384 ft 366 kts 326°
2026-04-24 10:06 51.64992 -0.26931 25043 ft 387 kts 326°
2026-04-24 10:07 51.67345 -0.29196 24612 ft 400 kts 327°
2026-04-24 10:07 51.69719 -0.31468 24202 ft 402 kts 327°
2026-04-24 10:07 51.72119 -0.33760 23773 ft 400 kts 327°
2026-04-24 10:07 51.74503 -0.36040 23344 ft 397 kts 327°
2026-04-24 10:08 51.76869 -0.38308 22942 ft 394 kts 327°
2026-04-24 10:08 51.79213 -0.40560 22530 ft 390 kts 327°
2026-04-24 10:08 51.81534 -0.42798 22385 ft 388 kts 327°
2026-04-24 10:08 51.83842 -0.45047 22384 ft 387 kts 327°
2026-04-24 10:09 51.86139 -0.47297 22368 ft 386 kts 327°
2026-04-24 10:09 51.88434 -0.49547 22368 ft 386 kts 327°
2026-04-24 10:09 51.90731 -0.51798 22372 ft 386 kts 327°
2026-04-24 10:09 51.92903 -0.54335 22363 ft 384 kts 315°
2026-04-24 10:10 51.94657 -0.57567 22380 ft 381 kts 302°
2026-04-24 10:10 51.96064 -0.61199 22386 ft 380 kts 299°
2026-04-24 10:10 51.97442 -0.64863 22375 ft 381 kts 299°
2026-04-24 10:10 51.98825 -0.68530 22371 ft 381 kts 299°
2026-04-24 10:11 52.00216 -0.72200 22377 ft 381 kts 299°
2026-04-24 10:11 52.01607 -0.75859 22368 ft 379 kts 299°
2026-04-24 10:11 52.02980 -0.79459 22089 ft 373 kts 300°
2026-04-24 10:11 52.04344 -0.83031 21627 ft 372 kts 300°
2026-04-24 10:12 52.05708 -0.86609 21082 ft 373 kts 300°
2026-04-24 10:12 52.07075 -0.90195 20605 ft 372 kts 300°
2026-04-24 10:12 52.08429 -0.93751 20202 ft 369 kts 300°
2026-04-24 10:12 52.09774 -0.97288 19818 ft 366 kts 300°
2026-04-24 10:13 52.11111 -1.00808 19390 ft 365 kts 300°
2026-04-24 10:13 52.12444 -1.04325 18920 ft 365 kts 300°
2026-04-24 10:13 52.13773 -1.07835 18527 ft 363 kts 300°
2026-04-24 10:13 52.15090 -1.11317 18117 ft 360 kts 300°
2026-04-24 10:14 52.16394 -1.14770 17706 ft 357 kts 300°
2026-04-24 10:14 52.17690 -1.18206 17282 ft 355 kts 300°
2026-04-24 10:14 52.18979 -1.21630 16866 ft 353 kts 300°
2026-04-24 10:14 52.20256 -1.25026 16471 ft 351 kts 300°
2026-04-24 10:15 52.21527 -1.28409 16053 ft 349 kts 300°
2026-04-24 10:15 52.22789 -1.31777 15655 ft 348 kts 300°
2026-04-24 10:15 52.24048 -1.35137 15239 ft 347 kts 301°
2026-04-24 10:15 52.25301 -1.38489 14834 ft 345 kts 301°
2026-04-24 10:16 52.26529 -1.41847 14460 ft 344 kts 297°
2026-04-24 10:16 52.27537 -1.45375 14066 ft 341 kts 292°
2026-04-24 10:16 52.28417 -1.48931 13792 ft 334 kts 291°
2026-04-24 10:16 52.29267 -1.52460 13419 ft 333 kts 291°
2026-04-24 10:17 52.30122 -1.55978 13089 ft 333 kts 292°
2026-04-24 10:17 52.30987 -1.59483 12738 ft 334 kts 292°
2026-04-24 10:17 52.31863 -1.62994 12405 ft 334 kts 292°
2026-04-24 10:17 52.32746 -1.66505 12076 ft 333 kts 292°
2026-04-24 10:18 52.33628 -1.70004 11751 ft 332 kts 293°
2026-04-24 10:18 52.34508 -1.73489 11432 ft 331 kts 293°
2026-04-24 10:18 52.35446 -1.76914 11096 ft 330 kts 302°
2026-04-24 10:18 52.36849 -1.79849 10767 ft 326 kts 313°
2026-04-24 10:19 52.38386 -1.82558 10401 ft 324 kts 315°
2026-04-24 10:19 52.39928 -1.85220 10008 ft 322 kts 315°
2026-04-24 10:19 52.41465 -1.87861 9617 ft 316 kts 315°
2026-04-24 10:19 52.42964 -1.90432 9221 ft 309 kts 315°
2026-04-24 10:20 52.44429 -1.92944 8829 ft 302 kts 315°
2026-04-24 10:20 52.45872 -1.95415 8453 ft 297 kts 315°
2026-04-24 10:20 52.47286 -1.97835 8073 ft 292 kts 315°
2026-04-24 10:20 52.48677 -2.00216 7693 ft 286 kts 315°
2026-04-24 10:21 52.50064 -2.02527 7324 ft 281 kts 321°
2026-04-24 10:21 52.51728 -2.04072 6950 ft 273 kts 342°
2026-04-24 10:21 52.53512 -2.05047 6573 ft 268 kts 345°
2026-04-24 10:21 52.55280 -2.05946 6185 ft 264 kts 345°
2026-04-24 10:22 52.57020 -2.06818 5840 ft 258 kts 345°
2026-04-24 10:22 52.58707 -2.07659 5471 ft 249 kts 345°
2026-04-24 10:22 52.60338 -2.08468 5091 ft 242 kts 345°
2026-04-24 10:22 52.61933 -2.09258 4691 ft 236 kts 345°
2026-04-24 10:23 52.63489 -2.09718 4355 ft 226 kts
2026-04-24 10:23 52.64871 -2.08822 4136 ft 209 kts 47°
2026-04-24 10:23 52.65456 -2.06810 3974 ft 192 kts 88°
2026-04-24 10:23 52.65482 -2.04672 3836 ft 183 kts 90°
2026-04-24 10:24 52.65440 -2.02612 3626 ft 179 kts 106°
2026-04-24 10:24 52.64895 -2.00796 3490 ft 177 kts 120°
2026-04-24 10:24 52.64270 -1.98999 3264 ft 179 kts 120°
2026-04-24 10:24 52.63644 -1.97243 3099 ft 176 kts 120°
2026-04-24 10:25 52.63022 -1.95502 3033 ft 177 kts 120°
2026-04-24 10:25 52.62270 -1.93917 2922 ft 177 kts 142°
2026-04-24 10:25 52.61281 -1.92771 2927 ft 178 kts 145°
2026-04-24 10:25 52.60244 -1.91624 2852 ft 180 kts 144°
2026-04-24 10:26 52.59211 -1.90451 2737 ft 179 kts 143°
2026-04-24 10:26 52.58221 -1.89219 2562 ft 178 kts 141°
2026-04-24 10:26 52.57225 -1.88015 2521 ft 178 kts 143°
2026-04-24 10:26 52.56207 -1.86857 2510 ft 177 kts 144°
2026-04-24 10:27 52.55188 -1.85716 2439 ft 180 kts 144°
2026-04-24 10:27 52.54143 -1.84554 2202 ft 181 kts 144°
2026-04-24 10:27 52.53110 -1.83405 1966 ft 178 kts 144°
2026-04-24 10:27 52.52092 -1.82273 1717 ft 175 kts 144°
2026-04-24 10:28 52.51108 -1.81176 1484 ft 167 kts 144°
2026-04-24 10:28 52.50178 -1.80143 1281 ft 154 kts 144°
2026-04-24 10:28 52.49323 -1.79191 1047 ft 142 kts 142°
2026-04-24 10:28 52.48516 -1.78290 871 ft 139 kts 142°
2026-04-24 10:29 52.47706 -1.77384 694 ft 142 kts 143°
2026-04-24 10:29 52.46879 -1.76457 485 ft 145 kts 143°
2026-04-24 10:29 52.46045 -1.75536 318 ft 141 kts 143°
2026-04-24 10:29 52.45346 -1.74759 323 ft 94 kts 146°
2026-04-24 10:30 52.45010 -1.74384 328 ft 34 kts 146°
2026-04-24 10:30 52.44946 -1.74247 325 ft 13 kts 75°
2026-04-24 10:30 52.44969 -1.74104 323 ft 13 kts 76°
2026-04-24 10:30 52.44994 -1.73942 323 ft 15 kts 71°
2026-04-24 10:31 52.45047 -1.73806 322 ft 11 kts 55°
2026-04-24 10:31 52.45113 -1.73788 321 ft 11 kts 329°
2026-04-24 10:31 52.45175 -1.73857 322 ft 11 kts 325°
2026-04-24 10:31 52.45235 -1.73924 322 ft 10 kts 326°
2026-04-24 10:32 52.45298 -1.73974 322 ft 10 kts
2026-04-24 10:32 52.45347 -1.73897 322 ft 10 kts 56°
2026-04-24 10:32 52.45385 -1.73804 322 ft 10 kts 56°
2026-04-24 10:32 52.45387 -1.73747 322 ft 5 kts 134°
2026-04-24 10:33 52.45358 -1.73712 322 ft 5 kts 146°
2026-04-24 10:33 52.45347 -1.73700 322 ft 0 kts 146°